When you browse on this site, cookies collect data to enhance your experience and personalize the content and advertising you see.
Visit our Privacy Policy to learn more. By continuing to use the site, you agree to this use of cookies and data.
  • In Österreich
  • Länderverzeichnis
  • Für 7 Tage
  • Wassertemperatur
  • Wetterkarte
  • News
  • Widgets
  • user-avatar
    Anmelden

    Stündliche Wetter Wratsa

    Heute, 28 Februar, Freitag

    Zeit Temperatur Niederschläge Wind Luftdruck Luftfeuchtigkeit
    00:00 0°C° 0 mm 3 m/S 702 mmHg 73%
    01:00 -1°C° 0 mm 2 m/S 702 mmHg 74%
    02:00 -1°C° 0 mm 2 m/S 702 mmHg 74%
    03:00 -1°C° 0 mm 2 m/S 702 mmHg 73%
    04:00 -1°C° 0 mm 2 m/S 702 mmHg 72%
    05:00 -1°C° 0 mm 2 m/S 702 mmHg 70%
    06:00 -1°C° 0 mm 2 m/S 702 mmHg 67%
    07:00 +1°C° 0 mm 2 m/S 702 mmHg 64%
    08:00 +2°C° 0 mm 2 m/S 702 mmHg 62%
    09:00 +2°C° 0 mm 3 m/S 702 mmHg 56%
    10:00 +3°C° 0 mm 3 m/S 702 mmHg 51%
    11:00 +5°C° 0 mm 3 m/S 702 mmHg 45%
    12:00 +6°C° 0.1 mm 2 m/S 701 mmHg 51%
    13:00 +5°C° 0.1 mm 2 m/S 701 mmHg 56%
    14:00 +5°C° 0.1 mm 2 m/S 701 mmHg 62%
    15:00 +5°C° 0.5 mm 2 m/S 701 mmHg 69%
    16:00 +3°C° 0.5 mm 3 m/S 702 mmHg 76%
    17:00 +2°C° 0.5 mm 3 m/S 702 mmHg 84%
    18:00 +2°C° 0.2 mm 3 m/S 703 mmHg 81%
    19:00 +1°C° 0.2 mm 3 m/S 703 mmHg 79%
    20:00 0°C° 0.2 mm 4 m/S 703 mmHg 77%
    21:00 0°C° 0.1 mm 4 m/S 704 mmHg 78%
    22:00 -1°C° 0.1 mm 4 m/S 704 mmHg 79%
    23:00 -1°C° 0.1 mm 4 m/S 704 mmHg 81%

    Morgen, 29 Februar, Samstag

    Zeit Temperatur Niederschläge Wind Luftdruck Luftfeuchtigkeit
    00:00 -1°C° 0 mm 4 m/S 705 mmHg 79%
    01:00 -1°C° 0 mm 5 m/S 705 mmHg 77%
    02:00 -2°C° 0 mm 5 m/S 705 mmHg 75%
    03:00 -2°C° 0 mm 5 m/S 706 mmHg 74%
    04:00 -2°C° 0 mm 4 m/S 706 mmHg 73%
    05:00 -2°C° 0 mm 4 m/S 706 mmHg 72%
    06:00 -2°C° 0 mm 4 m/S 707 mmHg 70%
    07:00 -1°C° 0 mm 3 m/S 707 mmHg 69%
    08:00 -1°C° 0 mm 3 m/S 708 mmHg 67%
    09:00 0°C° 0 mm 3 m/S 709 mmHg 61%
    10:00 +1°C° 0 mm 4 m/S 709 mmHg 54%
    11:00 +3°C° 0 mm 4 m/S 710 mmHg 48%
    12:00 +4°C° 0 mm 3 m/S 709 mmHg 46%
    13:00 +4°C° 0 mm 3 m/S 709 mmHg 43%
    14:00 +6°C° 0 mm 2 m/S 709 mmHg 41%
    15:00 +6°C° 0 mm 2 m/S 709 mmHg 42%
    16:00 +7°C° 0 mm 1 m/S 709 mmHg 42%
    17:00 +7°C° 0 mm 1 m/S 709 mmHg 43%
    18:00 +6°C° 0 mm 1 m/S 709 mmHg 49%
    19:00 +5°C° 0 mm 1 m/S 709 mmHg 54%
    20:00 +3°C° 0 mm 1 m/S 709 mmHg 59%
    21:00 +2°C° 0 mm 2 m/S 709 mmHg 60%
    22:00 +2°C° 0 mm 2 m/S 709 mmHg 60%
    23:00 +2°C° 0 mm 2 m/S 709 mmHg 60%

    übermorgen, 1 März, Sonntag

    Zeit Temperatur Niederschläge Wind Luftdruck Luftfeuchtigkeit
    00:00 +2°C° 0 mm 2 m/S 708 mmHg 61%
    01:00 +2°C° 0 mm 2 m/S 708 mmHg 61%
    02:00 +2°C° 0 mm 2 m/S 708 mmHg 62%
    03:00 +2°C° 0 mm 2 m/S 708 mmHg 62%
    04:00 +1°C° 0 mm 2 m/S 708 mmHg 63%
    05:00 +1°C° 0 mm 2 m/S 708 mmHg 64%
    06:00 +1°C° 0 mm 2 m/S 708 mmHg 64%
    07:00 +1°C° 0 mm 2 m/S 708 mmHg 64%
    08:00 +1°C° 0 mm 2 m/S 708 mmHg 64%
    09:00 +3°C° 0 mm 2 m/S 708 mmHg 58%
    10:00 +6°C° 0 mm 1 m/S 708 mmHg 51%
    11:00 +8°C° 0 mm 1 m/S 708 mmHg 45%
    12:00 +9°C° 0 mm 1 m/S 708 mmHg 43%
    13:00 +10°C° 0 mm 1 m/S 708 mmHg 41%
    14:00 +11°C° 0 mm 1 m/S 708 mmHg 39%
    15:00 +11°C° 0 mm 1 m/S 707 mmHg 41%
    16:00 +11°C° 0 mm 1 m/S 707 mmHg 43%
    17:00 +11°C° 0 mm 1 m/S 707 mmHg 45%
    18:00 +10°C° 0 mm 1 m/S 707 mmHg 50%
    19:00 +8°C° 0 mm 1 m/S 707 mmHg 54%
    20:00 +7°C° 0 mm 1 m/S 707 mmHg 59%
    21:00 +7°C° 0 mm 1 m/S 707 mmHg 61%
    22:00 +6°C° 0 mm 1 m/S 707 mmHg 63%
    23:00 +5°C° 0 mm 2 m/S 706 mmHg 65%

    2 März, Montag

    Zeit Temperatur Niederschläge Wind Luftdruck Luftfeuchtigkeit
    00:00 +5°C° 0 mm 2 m/S 706 mmHg 66%
    01:00 +4°C° 0 mm 2 m/S 706 mmHg 67%
    02:00 +4°C° 0 mm 2 m/S 705 mmHg 69%
    03:00 +4°C° 0 mm 2 m/S 705 mmHg 68%
    04:00 +4°C° 0 mm 2 m/S 705 mmHg 68%
    05:00 +4°C° 0 mm 2 m/S 704 mmHg 67%
    06:00 +4°C° 0 mm 2 m/S 704 mmHg 67%
    07:00 +5°C° 0 mm 2 m/S 704 mmHg 67%
    08:00 +5°C° 0 mm 2 m/S 704 mmHg 67%
    09:00 +6°C° 0 mm 2 m/S 704 mmHg 63%
    10:00 +8°C° 0 mm 3 m/S 704 mmHg 60%
    11:00 +10°C° 0 mm 3 m/S 703 mmHg 57%
    12:00 +11°C° 0 mm 4 m/S 703 mmHg 56%
    13:00 +12°C° 0 mm 5 m/S 703 mmHg 55%
    14:00 +13°C° 0 mm 5 m/S 703 mmHg 54%
    15:00 +13°C° 0 mm 5 m/S 703 mmHg 55%
    16:00 +13°C° 0 mm 4 m/S 703 mmHg 55%
    17:00 +13°C° 0 mm 4 m/S 702 mmHg 56%
    18:00 +11°C° 0 mm 3 m/S 703 mmHg 61%
    19:00 +10°C° 0 mm 3 m/S 703 mmHg 66%
    20:00 +9°C° 0 mm 2 m/S 703 mmHg 70%
    21:00 +8°C° 0 mm 2 m/S 703 mmHg 73%
    22:00 +8°C° 0 mm 2 m/S 703 mmHg 75%
    23:00 +7°C° 0 mm 2 m/S 703 mmHg 77%

    3 März, Dienstag

    Zeit Temperatur Niederschläge Wind Luftdruck Luftfeuchtigkeit
    00:00 +7°C° 0 mm 2 m/S 703 mmHg 78%
    01:00 +7°C° 0 mm 2 m/S 703 mmHg 78%
    02:00 +6°C° 0 mm 2 m/S 703 mmHg 78%
    03:00 +6°C° 0 mm 2 m/S 703 mmHg 77%
    04:00 +6°C° 0 mm 2 m/S 702 mmHg 76%
    05:00 +6°C° 0 mm 2 m/S 702 mmHg 75%
    06:00 +7°C° 0 mm 2 m/S 702 mmHg 75%
    07:00 +7°C° 0 mm 2 m/S 702 mmHg 75%
    08:00 +7°C° 0 mm 2 m/S 702 mmHg 75%
    09:00 +8°C° 0 mm 2 m/S 702 mmHg 71%
    10:00 +9°C° 0 mm 2 m/S 701 mmHg 67%
    11:00 +12°C° 0 mm 2 m/S 701 mmHg 63%
    12:00 +12°C° 0 mm 3 m/S 701 mmHg 58%
    13:00 +13°C° 0 mm 4 m/S 701 mmHg 54%
    14:00 +15°C° 0 mm 4 m/S 701 mmHg 49%
    15:00 +14°C° 0 mm 4 m/S 700 mmHg 51%
    16:00 +14°C° 0 mm 4 m/S 700 mmHg 53%
    17:00 +14°C° 0 mm 3 m/S 699 mmHg 55%
    18:00 +13°C° 0 mm 3 m/S 699 mmHg 59%
    19:00 +13°C° 0 mm 2 m/S 699 mmHg 62%
    20:00 +12°C° 0 mm 2 m/S 699 mmHg 65%
    21:00 +10°C° 0 mm 2 m/S 699 mmHg 67%
    22:00 +11°C° 0 mm 1 m/S 699 mmHg 68%
    23:00 +11°C° 0 mm 1 m/S 699 mmHg 70%

    4 März, Mittwoch

    Zeit Temperatur Niederschläge Wind Luftdruck Luftfeuchtigkeit
    00:00 +9°C° 0 mm 2 m/S 699 mmHg 74%
    01:00 +9°C° 0 mm 2 m/S 699 mmHg 79%
    02:00 +8°C° 0 mm 2 m/S 699 mmHg 83%
    03:00 +7°C° 1.1 mm 2 m/S 699 mmHg 86%
    04:00 +7°C° 1.1 mm 2 m/S 699 mmHg 88%
    05:00 +5°C° 1.1 mm 3 m/S 699 mmHg 90%
    06:00 +6°C° 0.2 mm 2 m/S 699 mmHg 88%
    07:00 +6°C° 0.2 mm 2 m/S 699 mmHg 86%
    08:00 +7°C° 0.2 mm 1 m/S 700 mmHg 84%
    09:00 +6°C° 0 mm 2 m/S 700 mmHg 80%
    10:00 +6°C° 0 mm 2 m/S 700 mmHg 75%
    11:00 +7°C° 0 mm 3 m/S 700 mmHg 71%
    12:00 +7°C° 0 mm 3 m/S 700 mmHg 70%
    13:00 +7°C° 0 mm 2 m/S 699 mmHg 69%
    14:00 +7°C° 0 mm 2 m/S 699 mmHg 68%
    15:00 +7°C° 0.5 mm 2 m/S 699 mmHg 71%
    16:00 +6°C° 0.5 mm 2 m/S 698 mmHg 75%
    17:00 +6°C° 0.5 mm 2 m/S 698 mmHg 78%
    18:00 +6°C° 0.7 mm 1 m/S 698 mmHg 80%
    19:00 +6°C° 0.7 mm 1 m/S 698 mmHg 82%
    20:00 +5°C° 0.7 mm 1 m/S 698 mmHg 84%
    21:00 +5°C° 0.2 mm 1 m/S 698 mmHg 85%
    22:00 +5°C° 0.2 mm 1 m/S 698 mmHg 85%
    23:00 +5°C° 0.2 mm 1 m/S 698 mmHg 86%
    Mehr zeigen